WZZ256 LDSP-LOWW

Flight info

Callsign WZZ256
Flight time N/A
Altitude 34000
Route SIRMI DCT RUDIK DCT OBUTI OBUTI2W
Aircraft A321/M-SDE3FGHIRWY/LB1

Departure

Time N/A
Airport Split Saint Jerome Airport (LDSP)

Arrival

Time 2026-05-06 18:52
Airport Vienna International Airport (LOWW)
Time Latitude Longitude Altitude Speed Heading
2026-05-06 18:01 43.89105 16.38566 13588 ft 353 kts 355°
2026-05-06 18:02 43.91589 16.38459 14186 ft 356 kts 355°
2026-05-06 18:02 43.94085 16.38352 14767 ft 360 kts 355°
2026-05-06 18:02 43.96613 16.38243 15356 ft 363 kts 355°
2026-05-06 18:02 43.99138 16.38135 15942 ft 366 kts 355°
2026-05-06 18:03 44.01746 16.38023 16535 ft 368 kts 355°
2026-05-06 18:03 44.04297 16.37913 17098 ft 371 kts 355°
2026-05-06 18:03 44.06885 16.37802 17655 ft 373 kts 355°
2026-05-06 18:03 44.09493 16.37689 18180 ft 376 kts 355°
2026-05-06 18:04 44.12125 16.37577 18685 ft 380 kts 355°
2026-05-06 18:04 44.14742 16.37463 19190 ft 382 kts 355°
2026-05-06 18:04 44.17408 16.37349 19707 ft 384 kts 355°
2026-05-06 18:04 44.20071 16.37234 20203 ft 386 kts 355°
2026-05-06 18:05 44.22768 16.37115 20710 ft 388 kts 355°
2026-05-06 18:05 44.25486 16.37000 21191 ft 391 kts 355°
2026-05-06 18:05 44.28182 16.36882 21673 ft 393 kts 355°
2026-05-06 18:05 44.30927 16.36760 22147 ft 395 kts 354°
2026-05-06 18:06 44.33687 16.36638 22598 ft 398 kts 354°
2026-05-06 18:06 44.36463 16.36517 23060 ft 400 kts 354°
2026-05-06 18:06 44.39212 16.36393 23524 ft 401 kts 354°
2026-05-06 18:06 44.42019 16.36269 23965 ft 404 kts 354°
2026-05-06 18:07 44.44843 16.36146 24378 ft 407 kts 354°
2026-05-06 18:07 44.47651 16.36023 24774 ft 410 kts 353°
2026-05-06 18:07 44.50520 16.35897 25180 ft 413 kts 353°
2026-05-06 18:07 44.53406 16.35769 25573 ft 416 kts 353°
2026-05-06 18:08 44.56314 16.35638 25949 ft 419 kts 353°
2026-05-06 18:08 44.59201 16.35511 26329 ft 422 kts 353°
2026-05-06 18:08 44.62150 16.35382 26681 ft 425 kts 353°
2026-05-06 18:08 44.65126 16.35248 27052 ft 428 kts 353°
2026-05-06 18:09 44.68085 16.35116 27409 ft 430 kts 353°
2026-05-06 18:09 44.71095 16.34984 27768 ft 433 kts 353°
2026-05-06 18:09 44.74072 16.34852 28119 ft 435 kts 353°
2026-05-06 18:09 44.77110 16.34718 28461 ft 437 kts 353°
2026-05-06 18:10 44.80162 16.34580 28796 ft 440 kts 353°
2026-05-06 18:10 44.83195 16.34442 29104 ft 442 kts 353°
2026-05-06 18:10 44.86297 16.34305 29443 ft 444 kts 353°
2026-05-06 18:10 44.89384 16.34169 29747 ft 447 kts 353°
2026-05-06 18:11 44.92509 16.34028 30034 ft 450 kts 353°
2026-05-06 18:11 44.95607 16.33889 30327 ft 452 kts 353°
2026-05-06 18:11 44.98773 16.33748 30753 ft 451 kts 353°
2026-05-06 18:11 45.01912 16.33614 31221 ft 449 kts 353°
2026-05-06 18:12 45.04993 16.33478 31617 ft 448 kts 353°
2026-05-06 18:12 45.08109 16.33338 32020 ft 447 kts 353°
2026-05-06 18:12 45.11186 16.33202 32378 ft 447 kts 352°
2026-05-06 18:12 45.14305 16.33062 32662 ft 448 kts 352°
2026-05-06 18:13 45.17432 16.32920 32962 ft 448 kts 352°
2026-05-06 18:13 45.20515 16.32779 33238 ft 449 kts 352°
2026-05-06 18:13 45.23649 16.32635 33491 ft 451 kts 352°
2026-05-06 18:13 45.26799 16.32493 33725 ft 452 kts 352°
2026-05-06 18:14 45.29966 16.32348 33906 ft 453 kts 352°
2026-05-06 18:14 45.33084 16.32205 33907 ft 454 kts 352°
2026-05-06 18:14 45.39416 16.31921 33905 ft 454 kts 352°
2026-05-06 18:15 45.45710 16.31633 33903 ft 454 kts 353°
2026-05-06 18:15 45.51999 16.31349 33900 ft 453 kts 353°
2026-05-06 18:16 45.58269 16.31062 33897 ft 453 kts 353°
2026-05-06 18:16 45.64587 16.30772 33898 ft 453 kts 353°
2026-05-06 18:17 45.70847 16.30486 33896 ft 452 kts 353°
2026-05-06 18:17 45.77119 16.30200 33895 ft 452 kts 353°
2026-05-06 18:18 45.83417 16.29910 33894 ft 452 kts 353°
2026-05-06 18:18 45.89667 16.29621 33894 ft 452 kts 353°
2026-05-06 18:19 45.95932 16.29330 33892 ft 452 kts 354°
2026-05-06 18:19 46.02212 16.29041 33887 ft 451 kts 354°
2026-05-06 18:20 46.08497 16.28750 33883 ft 451 kts 354°
2026-05-06 18:20 46.14754 16.28459 33881 ft 451 kts 354°
2026-05-06 18:21 46.20996 16.28171 33879 ft 452 kts 354°
2026-05-06 18:21 46.27303 16.27876 33873 ft 452 kts 354°
2026-05-06 18:22 46.33580 16.27583 33869 ft 452 kts 354°
2026-05-06 18:22 46.39794 16.26926 33684 ft 447 kts 348°
2026-05-06 18:23 46.42878 16.26269 32794 ft 452 kts 346°
2026-05-06 18:23 46.45962 16.25536 31684 ft 460 kts 346°
2026-05-06 18:23 46.49130 16.24768 30740 ft 463 kts 346°
2026-05-06 18:23 46.52315 16.24001 29892 ft 464 kts 346°
2026-05-06 18:24 46.55453 16.23249 29205 ft 462 kts 346°
2026-05-06 18:24 46.58605 16.22499 28657 ft 456 kts 346°
2026-05-06 18:24 46.61713 16.21761 28161 ft 449 kts 346°
2026-05-06 18:24 46.64780 16.21032 27682 ft 442 kts 346°
2026-05-06 18:25 46.67753 16.20326 27183 ft 433 kts 346°
2026-05-06 18:25 46.70690 16.19627 26454 ft 425 kts 346°
2026-05-06 18:25 46.73591 16.18933 26007 ft 419 kts 346°
2026-05-06 18:25 46.76408 16.18260 25558 ft 413 kts 346°
2026-05-06 18:26 46.79245 16.17580 25051 ft 410 kts 346°
2026-05-06 18:26 46.82065 16.16903 24501 ft 408 kts 346°
2026-05-06 18:26 46.84822 16.16241 23956 ft 406 kts 346°
2026-05-06 18:26 46.87604 16.15573 23428 ft 404 kts 347°
2026-05-06 18:27 46.90377 16.14907 22900 ft 402 kts 347°
2026-05-06 18:27 46.93093 16.14255 22417 ft 399 kts 346°
2026-05-06 18:27 46.95826 16.13596 21942 ft 396 kts 347°
2026-05-06 18:27 46.98532 16.12944 21481 ft 392 kts 347°
2026-05-06 18:28 47.01179 16.12307 21019 ft 389 kts 346°
2026-05-06 18:28 47.03852 16.11659 20450 ft 389 kts 346°
2026-05-06 18:28 47.06532 16.11010 19863 ft 390 kts 347°
2026-05-06 18:28 47.09170 16.10369 19287 ft 390 kts 347°
2026-05-06 18:29 47.11856 16.09718 18701 ft 390 kts 347°
2026-05-06 18:29 47.14529 16.09070 18136 ft 389 kts 347°
2026-05-06 18:29 47.17138 16.08439 17841 ft 380 kts 347°
2026-05-06 18:29 47.19712 16.07819 17813 ft 368 kts 347°
2026-05-06 18:30 47.22238 16.07206 17819 ft 367 kts 347°
2026-05-06 18:30 47.24737 16.06595 17815 ft 367 kts 347°
2026-05-06 18:30 47.27242 16.05983 17810 ft 367 kts 347°
2026-05-06 18:30 47.29799 16.05358 17811 ft 367 kts 347°
2026-05-06 18:31 47.32295 16.04749 17813 ft 367 kts 347°
2026-05-06 18:31 47.34828 16.04142 17811 ft 368 kts 349°
2026-05-06 18:31 47.37403 16.04088 17798 ft 373 kts
2026-05-06 18:31 47.39907 16.05040 17666 ft 377 kts 21°
2026-05-06 18:32 47.42256 16.06709 17406 ft 373 kts 25°
2026-05-06 18:32 47.44586 16.08444 16943 ft 372 kts 25°
2026-05-06 18:32 47.46865 16.10143 16469 ft 372 kts 25°
2026-05-06 18:32 47.49172 16.11854 16034 ft 369 kts 25°
2026-05-06 18:33 47.51477 16.13554 15602 ft 367 kts 25°
2026-05-06 18:33 47.53727 16.15209 15172 ft 365 kts 25°
2026-05-06 18:33 47.56001 16.16879 14720 ft 364 kts 25°
2026-05-06 18:33 47.58268 16.18543 14295 ft 362 kts 25°
2026-05-06 18:34 47.60515 16.20194 13889 ft 359 kts 25°
2026-05-06 18:34 47.62721 16.21815 13443 ft 358 kts 25°
2026-05-06 18:34 47.64949 16.23456 13015 ft 356 kts 25°
2026-05-06 18:34 47.67161 16.25085 12589 ft 353 kts 25°
2026-05-06 18:35 47.69341 16.26693 12172 ft 350 kts 25°
2026-05-06 18:35 47.71499 16.28285 11822 ft 346 kts 24°
2026-05-06 18:35 47.73665 16.29883 11633 ft 347 kts 25°
2026-05-06 18:35 47.75833 16.31485 11392 ft 346 kts 24°
2026-05-06 18:36 47.77956 16.33057 11129 ft 340 kts 24°
2026-05-06 18:36 47.80065 16.34620 10801 ft 334 kts 24°
2026-05-06 18:36 47.82151 16.36035 10486 ft 327 kts 14°
2026-05-06 18:36 47.84327 16.36232 10219 ft 308 kts 342°
2026-05-06 18:37 47.86266 16.35075 9975 ft 294 kts 327°
2026-05-06 18:37 47.88025 16.33622 9810 ft 291 kts 326°
2026-05-06 18:37 47.89782 16.32200 9614 ft 281 kts 327°
2026-05-06 18:37 47.91484 16.30907 9492 ft 268 kts 328°
2026-05-06 18:38 47.93116 16.29725 9360 ft 259 kts 329°
2026-05-06 18:38 47.94746 16.28576 9233 ft 257 kts 329°
2026-05-06 18:38 47.96356 16.27459 9106 ft 256 kts 329°
2026-05-06 18:38 47.97975 16.26350 8982 ft 255 kts 330°
2026-05-06 18:39 47.99593 16.25251 8861 ft 255 kts 330°
2026-05-06 18:39 48.01189 16.24169 8635 ft 254 kts 330°
2026-05-06 18:39 48.02800 16.23080 8391 ft 252 kts 330°
2026-05-06 18:40 48.05973 16.20936 7905 ft 250 kts 330°
2026-05-06 18:40 48.07567 16.19854 7662 ft 251 kts 330°
2026-05-06 18:40 48.09158 16.18777 7420 ft 250 kts 330°
2026-05-06 18:40 48.10720 16.17719 7180 ft 250 kts 330°
2026-05-06 18:41 48.12262 16.16679 6940 ft 246 kts 329°
2026-05-06 18:41 48.13799 16.15632 6698 ft 246 kts 328°
2026-05-06 18:41 48.15212 16.14258 6446 ft 237 kts 313°
2026-05-06 18:41 48.16279 16.12469 6212 ft 227 kts 298°
2026-05-06 18:42 48.17033 16.10422 5982 ft 218 kts 290°
2026-05-06 18:42 48.17664 16.08436 5931 ft 209 kts 289°
2026-05-06 18:42 48.18278 16.06468 5931 ft 210 kts 290°
2026-05-06 18:42 48.18901 16.04492 5917 ft 209 kts 290°
2026-05-06 18:43 48.19541 16.02548 5830 ft 201 kts 296°
2026-05-06 18:43 48.20548 16.01137 5654 ft 205 kts 331°
2026-05-06 18:43 48.21973 16.00885 5523 ft 214 kts
2026-05-06 18:43 48.23398 16.01644 5349 ft 217 kts 24°
2026-05-06 18:44 48.24565 16.03048 5123 ft 214 kts 58°
2026-05-06 18:44 48.25073 16.05146 4948 ft 209 kts 81°
2026-05-06 18:44 48.25332 16.07292 4925 ft 209 kts 85°
2026-05-06 18:44 48.25532 16.09469 4920 ft 207 kts 92°
2026-05-06 18:45 48.25435 16.11583 4922 ft 203 kts 106°
2026-05-06 18:45 48.25044 16.13608 4930 ft 198 kts 116°
2026-05-06 18:45 48.24531 16.15544 4935 ft 198 kts 118°
2026-05-06 18:45 48.23993 16.17445 4932 ft 199 kts 120°
2026-05-06 18:46 48.23424 16.19344 4936 ft 198 kts 121°
2026-05-06 18:46 48.22839 16.21212 4942 ft 198 kts 122°
2026-05-06 18:46 48.22245 16.23059 4930 ft 197 kts 122°
2026-05-06 18:46 48.21644 16.24897 4737 ft 196 kts 123°
2026-05-06 18:47 48.21029 16.26759 4473 ft 193 kts 122°
2026-05-06 18:47 48.20443 16.28531 4213 ft 190 kts 123°
2026-05-06 18:47 48.19848 16.30325 3954 ft 189 kts 123°
2026-05-06 18:47 48.19261 16.32097 3698 ft 187 kts 124°
2026-05-06 18:48 48.18689 16.33823 3455 ft 185 kts 123°
2026-05-06 18:48 48.18113 16.35572 3201 ft 183 kts 123°
2026-05-06 18:48 48.17558 16.37263 2966 ft 172 kts 124°
2026-05-06 18:48 48.17059 16.38798 2727 ft 157 kts 124°
2026-05-06 18:49 48.16601 16.40200 2500 ft 143 kts 125°
2026-05-06 18:49 48.16169 16.41510 2319 ft 139 kts 126°
2026-05-06 18:49 48.15736 16.42807 2144 ft 138 kts 126°
2026-05-06 18:49 48.15302 16.44103 1973 ft 138 kts 124°
2026-05-06 18:50 48.14904 16.45399 1802 ft 138 kts 123°
2026-05-06 18:50 48.14497 16.46709 1630 ft 137 kts 125°
2026-05-06 18:50 48.14056 16.47970 1411 ft 137 kts 124°
2026-05-06 18:50 48.13633 16.49243 1214 ft 136 kts 123°
2026-05-06 18:51 48.13215 16.50552 1026 ft 136 kts 122°
2026-05-06 18:51 48.12788 16.51828 855 ft 135 kts 122°
2026-05-06 18:51 48.12364 16.53093 670 ft 135 kts 121°
2026-05-06 18:51 48.11964 16.54296 608 ft 113 kts 115°
2026-05-06 18:52 48.11696 16.55128 608 ft 63 kts 115°
2026-05-06 18:52 48.11566 16.55526 608 ft 35 kts 115°
2026-05-06 18:52 48.11504 16.55844 608 ft 28 kts 93°
2026-05-06 18:52 48.11509 16.56074 608 ft 13 kts 73°
2026-05-06 18:53 48.11531 16.56120 608 ft 2 kts 36°
2026-05-06 18:53 48.11534 16.56123 608 ft 0 kts 35°
2026-05-06 18:54 48.11536 16.56124 608 ft 2 kts 35°
2026-05-06 18:54 48.11588 16.56108 608 ft 12 kts 314°
2026-05-06 18:54 48.11630 16.55982 608 ft 17 kts 293°
2026-05-06 18:55 48.11689 16.55796 608 ft 20 kts 295°
2026-05-06 18:55 48.11747 16.55620 608 ft 14 kts 294°
2026-05-06 18:55 48.11790 16.55485 608 ft 14 kts 295°
2026-05-06 18:55 48.11870 16.55430 608 ft 13 kts
2026-05-06 18:56 48.11962 16.55469 608 ft 14 kts 25°
2026-05-06 18:56 48.12030 16.55520 608 ft 4 kts 29°
2026-05-06 18:56 48.12033 16.55560 608 ft 4 kts 115°
2026-05-06 18:56 48.12025 16.55586 608 ft 2 kts 116°
2026-05-06 18:57 48.12024 16.55590 608 ft 0 kts 116°
2026-05-06 18:57 48.12022 16.55595 608 ft 0 kts 116°